Regional Weather Roundup
Issued by NWS Lake Charles, LA

Home | Current Version | Previous Version | Text Only | Print | Product List | Glossary On
Versions: 1 2 3 4 5 6 7 8 9 10 11 12 13 14 15 16 17 18 19 20 21 22 23 24 25 26 27 28 29 30 31 32 33 34 35 36 37 38 39 40 41 42 43 44 45 46 47 48 49 50
102
ASUS44 KLCH 072010
RWRLCH
REGIONAL WEATHER ROUNDUP
NATIONAL WEATHER SERVICE LAKE CHARLES LA
200 PM CST WED DEC 07 2016

Note: "fair" indicates few or no clouds below 12,000 feet with no
significant weather and/or obstructions to visibility.


ACROSS SOUTHEAST TEXAS

CITY           SKY/WX    TMP DP  RH WIND       PRES   REMARKS
BEAUMONT       CLOUDY    62  53  72 NE5       30.05S
BEAUMONT CITY  CLOUDY    62  54  74 N6        30.06F
ORANGE         CLOUDY    59  54  82 NE3       30.08S
JASPER         SUNNY     60  52  74 S3        30.09F
$$

ACROSS CENTRAL LOUISIANA

CITY           SKY/WX    TMP DP  RH WIND       PRES   REMARKS
LEESVILLE      CLOUDY    53  51  93 CALM      30.07F
FULLERTON      CLOUDY    54  50  86 CALM      30.06S
ALEXANDRIA INT CLOUDY    53  49  86 E5        30.08S
ESLER FIELD    CLOUDY    54  49  83 NE3       30.09S
DERIDDER       CLOUDY    55  54  95 CALM      30.09F FOG
OAKDALE        CLOUDY    57  52  81 CALM      30.08F
OPELOUSAS      CLOUDY    57  52  84 E3        30.08S
$$

ACROSS SOUTHWEST AND SOUTH CENTRAL LOUISIANA

CITY           SKY/WX    TMP DP  RH WIND       PRES   REMARKS
SULPHUR        CLOUDY    60  54  79 NE5       30.07F
LAKE CHARLES   CLOUDY    60  54  80 E7        30.06F
CHENNAULT INT  CLOUDY    61  54  77 VRB3      30.07F
CAMERON PHI    MOCLDY    61  57  88 NE7       30.05S
DEQUINCY       CLOUDY    56  51  82 CALM      30.08F
JENNINGS       CLOUDY    57  54  88 CALM      30.07S
LAFAYETTE      CLOUDY    63  55  75 NE3       30.06F
NEW IBERIA     CLOUDY    64  53  67 CALM      30.07F
ABBEVILLE      MOCLDY    63  55  77 CALM      30.07S
PATTERSON      CLOUDY   N/A N/A N/A NE3       30.07F
SALT POINT     NOT AVBL
$$

SELECTED SITES ACROSS THE REGION

CITY           SKY/WX    TMP DP  RH WIND       PRES   REMARKS
HOUSTON BUSH   CLOUDY    55  51  86 NE8       30.05F FOG
HOUSTON HOBBY  CLOUDY    58  54  86 NE7       30.04F FOG
GALVESTON      PTSUNNY   66  59  78 NE12      30.02F
COLLEGE STAT   CLOUDY    56  48  74 E6        30.04F
CONROE         CLOUDY    60  51  72 E5        30.05F
HUNTSVILLE     CLOUDY    59  48  67 CALM      30.05F
LUFKIN         CLOUDY    57  49  74 SW6       30.07S
SHREVEPORT     CLOUDY    55  47  74 SE5       30.08S
MONROE         CLOUDY    53  45  74 NE7       30.12S
NATCHEZ MS     CLOUDY    54  46  76 CALM      30.10S
BATON ROUGE    CLOUDY    62  53  72 N5        30.08S
N.O. INTL ARPT CLOUDY    63  57  81 N6        30.07F
SLIDELL        CLOUDY    61  53  75 NE5       30.07F
$$

MARINE REPORTS

STATION/POSITION TIME  SKY/WX   TEMP    WIND        PRES    VSBY
                                AIR SEA DIR/SP/G
                 (UTC)          (F)     (DEG/KT/KT) (MB)    (MI)
BUOY 30 S HIGH I NOT AVBL
SEA RIM ST PARK  2000            59      50/  9/ 10 1018.1F
PORT ARTHUR      1948               58   30/  6/  8 1017.7F
SABINE PASS N    1948               61   20/  8/  9 1018.7F
TEXAS POINT      NOT AVBL
CALCASIEU PASS   1942            59 60   40/  7/ 10   N/A
LK CHARLES BEACH 1942            59 58              1018.6F
MARSH ISLAND     1900            58                   N/A
FRESH WATER LOCK 1942            60 62   70/  5/  7 1018.5F
AMERADA PASS     1942            64 61   40/  2/  5 1017.4F
$$




USA.gov is the U.S. government's official web portal to all federal, state and local government web resources and services.